Regional Weather Roundup
Issued by NWS Sioux Falls, SD

Home | Current Version | Previous Version | Text Only | Print | Product List | Glossary On
Versions: 1 2 3 4 5 6 7 8 9 10 11 12 13 14 15 16 17 18 19 20 21 22 23 24 25 26 27 28 29 30 31 32 33 34 35 36 37 38 39 40 41 42 43 44 45 46 47 48 49 50
000
ASUS43 KFSD 291202
RWRFSD

WEATHER ROUNDUP FOR SE SOUTH DAKOTA/SW MINNESOTA/NW IOWA
NATIONAL WEATHER SERVICE SIOUX FALLS SD
700 AM CDT WED JUL 29 2015

NOTE: "FAIR" INDICATES FEW OR NO CLOUDS BELOW 12,000 FEET WITH NO
SIGNIFICANT WEATHER AND OR OBSTRUCTIONS TO VISIBILITY.


SDZ038>040-050-052>070-291300-
SOUTHEAST SOUTH DAKOTA

CITY           SKY/WX    TMP DP  RH WIND       PRES   REMARKS
BROOKINGS      CLEAR     57  46  67 SW9       30.08R
CHAMBERLAIN    NOT AVBL
HURON          CLEAR     59  48  67 SW12      30.06R
6HR MIN TEMP:  58; 6HR MAX TEMP:  64;

MADISON        FAIR      59  50  72 W13G18    30.09R
MITCHELL       CLEAR     61  50  67 W12       30.10R
6HR MIN TEMP:  60; 6HR MAX TEMP:  64;

SIOUX FALLS    FAIR      60  51  72 VRB3      30.10R
6HR MIN TEMP:  59; 6HR MAX TEMP:  63;

WINNER         FAIR      62  43  49 SW12      30.17R
YANKTON        CLEAR     59  54  82 SW5       30.13R
$$

MNZ071-072-080-081-089-090-097-098-291300-
SOUTHWEST MINNESOTA

CITY           SKY/WX    TMP DP  RH WIND       PRES   REMARKS
FAIRMONT       CLEAR     64  48  55 W12       30.05R
JACKSON        CLEAR     61  52  72 W9        30.08R
LUVERNE        CLEAR     59  52  77 W3        30.09S
MARSHALL       CLEAR     63  46  55 W13       30.02F
6HR MIN TEMP:  59; 6HR MAX TEMP:  64;

MONTEVIDEO     CLEAR     63  52  67 W10       29.99R
PIPESTONE      CLEAR     55  50  82 SW3       30.08S
REDWOOD FALLS  CLEAR     65  49  56 W13G21    29.99R
TRACY          CLEAR     63  50  63 W12G17    30.04R
WINDOM         CLEAR     59  52  77 W9        30.06R
WORTHINGTON    CLEAR     59  48  67 W9        30.09R
$$

IAZ001>003-012>014-020>022-031-032-NEZ013-014-SDZ071-291300-
NORTHWEST IOWA

CITY           SKY/WX    TMP DP  RH WIND       PRES   REMARKS
DENISON        CLEAR     57  57 100 SE3       30.12R
ESTHERVILLE    CLEAR     57  52  83 SW8       30.08R
SIOUX CITY     CLEAR     58  55  90 CALM      30.13R
6HR MIN TEMP:  57; 6HR MAX TEMP:  64;

SPENCER        CLEAR     58  52  80 W8        30.10R
6HR MIN TEMP:  54; 6HR MAX TEMP:  61;

$$

ABBREVIATIONS USED IN REMARKS
   TC - TEMPERATURE IN CELSIUS
  WCI - WIND CHILL INDEX
   HX - HEAT INDEX
  VSB - VISIBILITY



USA.gov is the U.S. government's official web portal to all federal, state and local government web resources and services.